Time,TemperatureF,DewpointF,PressureIn,WindDirection,WindDirectionDegrees,WindSpeedMPH,WindSpeedGustMPH,Humidity,HourlyPrecipIn,Conditions,Clouds,dailyrainin,SoftwareType,DateUTC
2016-12-09 00:00:00,24.3,5.5,30.30,West,259,4.0,4.5,44,0.00,,OVC034,0.00,VWS V15.00,2016-12-09 05:00:00,
2016-12-09 00:05:00,24.3,6.0,30.30,West,267,4.0,4.9,45,0.00,,OVC034,0.00,VWS V15.00,2016-12-09 05:05:00,
2016-12-09 00:10:00,24.3,6.0,30.30,WSW,250,4.0,5.4,45,0.00,,OVC034,0.00,VWS V15.00,2016-12-09 05:10:00,
2016-12-09 00:15:00,24.3,5.0,30.30,WSW,248,5.4,5.4,43,0.00,,OVC034,0.00,VWS V15.00,2016-12-09 05:15:00,
2016-12-09 00:20:00,24.3,5.0,30.30,WSW,257,4.0,5.8,43,0.00,,OVC034,0.00,VWS V15.00,2016-12-09 05:20:00,
2016-12-09 00:25:00,24.3,5.0,30.30,West,260,2.7,4.0,43,0.00,,OVC034,0.00,VWS V15.00,2016-12-09 05:25:00,
2016-12-09 00:35:00,24.3,4.5,30.30,West,259,6.3,6.3,42,0.00,,OVC034,0.00,VWS V15.00,2016-12-09 05:35:00,
2016-12-09 00:40:00,24.3,4.5,30.30,WSW,251,3.6,5.4,42,0.00,,OVC034,0.00,VWS V15.00,2016-12-09 05:40:00,
2016-12-09 00:45:00,24.3,4.5,30.30,SW,233,4.0,6.3,42,0.00,,OVC034,0.00,VWS V15.00,2016-12-09 05:45:00,
2016-12-09 00:50:00,24.3,4.5,30.30,SW,229,7.6,7.6,42,0.00,,OVC035,0.00,VWS V15.00,2016-12-09 05:50:00,
2016-12-09 00:55:00,24.4,4.7,30.30,WSW,251,4.0,4.0,42,0.00,,OVC035,0.00,VWS V15.00,2016-12-09 05:55:00,
2016-12-09 01:00:00,24.4,4.7,30.30,West,275,3.6,5.8,42,0.00,,OVC035,0.00,VWS V15.00,2016-12-09 06:00:00,
2016-12-09 01:10:00,24.4,4.7,30.30,WSW,249,7.6,7.6,42,0.00,,OVC035,0.00,VWS V15.00,2016-12-09 06:10:00,
2016-12-09 01:15:00,24.3,4.5,30.30,WSW,255,4.9,6.3,42,0.00,,OVC035,0.00,VWS V15.00,2016-12-09 06:15:00,
2016-12-09 01:20:00,24.3,4.5,30.30,WSW,244,3.6,5.4,42,0.00,,OVC035,0.00,VWS V15.00,2016-12-09 06:20:00,
2016-12-09 01:25:00,24.3,4.5,30.30,WSW,256,4.9,5.8,42,0.00,,OVC035,0.00,VWS V15.00,2016-12-09 06:25:00,
2016-12-09 01:30:00,24.3,4.5,30.30,West,259,4.0,6.3,42,0.00,,OVC035,0.00,VWS V15.00,2016-12-09 06:30:00,
2016-12-09 01:34:00,24.3,4.5,30.30,West,261,5.4,6.3,42,0.00,,OVC035,0.00,VWS V15.00,2016-12-09 06:34:00,
2016-12-09 01:39:00,24.3,4.5,30.30,West,262,0.0,5.8,42,0.00,,OVC035,0.00,VWS V15.00,2016-12-09 06:39:00,
2016-12-09 01:44:00,24.1,4.3,30.30,WSW,246,6.3,8.1,42,0.00,,OVC035,0.00,VWS V15.00,2016-12-09 06:44:00,
2016-12-09 01:49:00,24.3,5.0,30.30,West,268,6.3,6.3,43,0.00,,OVC041,0.00,VWS V15.00,2016-12-09 06:49:00,
2016-12-09 01:54:00,24.3,5.0,30.30,WSW,244,4.9,6.3,43,0.00,,OVC041,0.00,VWS V15.00,2016-12-09 06:54:00,
2016-12-09 01:59:00,24.3,5.0,30.30,West,262,4.9,4.9,43,0.00,,OVC041,0.00,VWS V15.00,2016-12-09 06:59:00,
2016-12-09 02:04:00,24.3,5.0,30.30,WSW,243,5.4,6.3,43,0.00,,OVC041,0.00,VWS V15.00,2016-12-09 07:04:00,
2016-12-09 02:09:00,24.3,5.0,30.30,West,259,4.0,7.6,43,0.00,,OVC041,0.00,VWS V15.00,2016-12-09 07:09:00,
2016-12-09 02:14:00,24.3,5.0,30.30,West,262,4.9,5.8,43,0.00,,OVC041,0.00,VWS V15.00,2016-12-09 07:14:00,
2016-12-09 02:19:00,24.3,5.0,30.30,West,259,5.8,10.1,43,0.00,,OVC041,0.00,VWS V15.00,2016-12-09 07:19:00,
2016-12-09 02:24:00,24.3,5.0,30.30,WSW,258,7.6,7.6,43,0.00,,OVC041,0.00,VWS V15.00,2016-12-09 07:24:00,
2016-12-09 02:29:00,24.3,5.0,30.30,SW,227,8.7,8.7,43,0.00,,OVC041,0.00,VWS V15.00,2016-12-09 07:29:00,
2016-12-09 02:34:00,24.1,4.8,30.30,SSW,205,5.8,10.5,43,0.00,,OVC041,0.00,VWS V15.00,2016-12-09 07:34:00,
2016-12-09 02:39:00,24.3,5.0,30.30,SW,223,5.8,5.8,43,0.00,,OVC041,0.00,VWS V15.00,2016-12-09 07:39:00,
2016-12-09 02:44:00,24.3,5.0,30.30,SW,225,7.6,7.6,43,0.00,,OVC041,0.00,VWS V15.00,2016-12-09 07:44:00,
2016-12-09 02:49:00,24.3,5.5,30.30,WSW,247,4.9,5.4,44,0.00,,OVC043,0.00,VWS V15.00,2016-12-09 07:49:00,
2016-12-09 02:54:00,24.3,5.5,30.30,WSW,252,4.9,8.3,44,0.00,,OVC043,0.00,VWS V15.00,2016-12-09 07:54:00,
2016-12-09 02:59:00,24.1,5.3,30.30,SW,229,3.1,5.8,44,0.00,,OVC043,0.00,VWS V15.00,2016-12-09 07:59:00,
2016-12-09 03:04:00,24.1,5.8,30.30,SW,225,5.4,6.3,45,0.00,,OVC043,0.00,VWS V15.00,2016-12-09 08:04:00,
2016-12-09 03:14:00,24.1,5.8,30.30,SSW,206,4.9,6.7,45,0.00,,OVC043,0.00,VWS V15.00,2016-12-09 08:14:00,
2016-12-09 03:24:00,24.3,6.5,30.30,WSW,257,4.0,5.8,46,0.00,,OVC043,0.00,VWS V15.00,2016-12-09 08:24:00,
2016-12-09 03:29:00,24.1,6.3,30.30,WSW,250,5.4,5.8,46,0.00,,OVC043,0.00,VWS V15.00,2016-12-09 08:29:00,
2016-12-09 03:34:00,23.9,6.1,30.30,WSW,245,4.0,6.3,46,0.00,,OVC043,0.00,VWS V15.00,2016-12-09 08:34:00,
2016-12-09 03:39:00,23.9,7.1,30.30,WSW,245,4.9,4.9,48,0.00,,OVC043,0.00,VWS V15.00,2016-12-09 08:39:00,
2016-12-09 03:44:00,23.9,7.1,30.30,WSW,249,6.7,10.1,48,0.00,,OVC043,0.00,VWS V15.00,2016-12-09 08:44:00,
2016-12-09 03:49:00,23.9,7.5,30.30,West,279,4.9,4.9,49,0.00,,,0.00,VWS V15.00,2016-12-09 08:49:00,
2016-12-09 03:54:00,23.9,8.0,30.30,West,262,7.6,7.6,50,0.00,,,0.00,VWS V15.00,2016-12-09 08:54:00,
2016-12-09 03:59:00,23.7,8.2,30.30,West,269,4.0,5.4,51,0.00,,,0.00,VWS V15.00,2016-12-09 08:59:00,
2016-12-09 04:04:00,23.7,8.7,30.30,West,271,4.5,5.4,52,0.00,,OVC047,0.00,VWS V15.00,2016-12-09 09:04:00,
2016-12-09 04:09:00,23.7,8.7,30.30,West,267,5.4,5.4,52,0.00,,OVC047,0.00,VWS V15.00,2016-12-09 09:09:00,
2016-12-09 04:14:00,23.5,8.5,30.33,West,270,6.3,6.3,52,0.00,,OVC047,0.00,VWS V15.00,2016-12-09 09:14:00,
2016-12-09 04:19:00,23.5,8.5,30.33,WSW,250,5.8,6.3,52,0.00,,OVC047,0.00,VWS V15.00,2016-12-09 09:19:00,
2016-12-09 04:24:00,23.5,8.9,30.33,WSW,252,6.3,6.3,53,0.00,,OVC047,0.00,VWS V15.00,2016-12-09 09:24:00,
2016-12-09 04:29:00,23.5,8.9,30.33,WSW,250,4.9,6.3,53,0.00,,OVC047,0.00,VWS V15.00,2016-12-09 09:29:00,
2016-12-09 04:34:00,23.5,8.9,30.33,WSW,257,4.9,4.9,53,0.00,,OVC047,0.00,VWS V15.00,2016-12-09 09:34:00,
2016-12-09 04:39:00,23.5,8.9,30.33,WSW,241,4.9,8.7,53,0.00,,OVC047,0.00,VWS V15.00,2016-12-09 09:39:00,
2016-12-09 04:44:00,23.4,8.4,30.33,WSW,257,4.9,6.3,52,0.00,,OVC047,0.00,VWS V15.00,2016-12-09 09:44:00,
2016-12-09 04:49:00,23.5,8.9,30.33,West,263,4.9,5.8,53,0.00,,,0.00,VWS V15.00,2016-12-09 09:49:00,
2016-12-09 04:54:00,23.5,8.5,30.33,WSW,250,8.1,8.1,52,0.00,,,0.00,VWS V15.00,2016-12-09 09:54:00,
2016-12-09 04:59:00,23.5,8.5,30.33,WSW,247,5.8,6.3,52,0.00,,,0.00,VWS V15.00,2016-12-09 09:59:00,
2016-12-09 05:04:00,23.4,8.4,30.33,SW,220,4.0,5.8,52,0.00,,,0.00,VWS V15.00,2016-12-09 10:04:00,
2016-12-09 05:09:00,23.5,8.5,30.33,West,262,7.6,8.3,52,0.00,,,0.00,VWS V15.00,2016-12-09 10:09:00,
2016-12-09 05:14:00,23.5,8.5,30.33,WNW,287,4.0,8.1,52,0.00,,,0.00,VWS V15.00,2016-12-09 10:14:00,
2016-12-09 05:19:00,23.5,8.5,30.33,West,263,4.9,5.8,52,0.00,,,0.00,VWS V15.00,2016-12-09 10:19:00,
2016-12-09 05:24:00,23.5,8.9,30.33,WSW,258,5.4,7.6,53,0.00,,,0.00,VWS V15.00,2016-12-09 10:24:00,
2016-12-09 05:29:00,23.5,8.9,30.33,West,264,6.3,8.1,53,0.00,,,0.00,VWS V15.00,2016-12-09 10:29:00,
2016-12-09 05:34:00,23.5,9.8,30.33,West,265,5.4,5.4,55,0.00,,,0.00,VWS V15.00,2016-12-09 10:34:00,
2016-12-09 05:39:00,23.5,9.8,30.33,WSW,255,7.6,11.0,55,0.00,,,0.00,VWS V15.00,2016-12-09 10:39:00,
2016-12-09 05:44:00,23.4,9.2,30.33,WSW,248,5.4,7.6,54,0.00,,,0.00,VWS V15.00,2016-12-09 10:44:00,
2016-12-09 05:49:00,23.4,9.2,30.33,WSW,255,8.3,13.2,54,0.00,,,0.00,VWS V15.00,2016-12-09 10:49:00,
2016-12-09 05:54:00,23.4,8.8,30.33,WSW,254,6.3,7.2,53,0.00,,,0.00,VWS V15.00,2016-12-09 10:54:00,
2016-12-09 05:59:00,23.4,8.8,30.33,WNW,291,5.8,6.3,53,0.00,,,0.00,VWS V15.00,2016-12-09 10:59:00,
2016-12-09 06:04:00,23.4,8.8,30.33,WNW,285,4.0,6.3,53,0.00,,,0.00,VWS V15.00,2016-12-09 11:04:00,
2016-12-09 06:09:00,23.4,8.8,30.33,WSW,257,5.8,6.3,53,0.00,,,0.00,VWS V15.00,2016-12-09 11:09:00,
2016-12-09 06:14:00,23.4,9.2,30.33,WSW,256,3.6,4.0,54,0.00,,,0.00,VWS V15.00,2016-12-09 11:14:00,
2016-12-09 06:19:00,23.5,9.8,30.33,West,277,5.8,5.8,55,0.00,,,0.00,VWS V15.00,2016-12-09 11:19:00,
2016-12-09 06:24:00,23.5,10.2,30.33,West,262,4.9,5.8,56,0.00,,,0.00,VWS V15.00,2016-12-09 11:24:00,
2016-12-09 06:29:00,23.4,10.0,30.33,West,268,5.4,6.3,56,0.00,,,0.00,VWS V15.00,2016-12-09 11:29:00,
2016-12-09 06:34:00,23.4,10.0,30.33,WSW,251,6.7,6.7,56,0.00,,,0.00,VWS V15.00,2016-12-09 11:34:00,
2016-12-09 06:39:00,23.2,9.8,30.33,West,277,4.9,8.7,56,0.00,,,0.00,VWS V15.00,2016-12-09 11:39:00,
2016-12-09 06:44:00,23.2,9.8,30.36,West,259,5.4,5.4,56,0.00,,,0.00,VWS V15.00,2016-12-09 11:44:00,
2016-12-09 06:49:00,23.5,10.9,30.36,West,264,4.9,5.8,58,0.00,,,0.00,VWS V15.00,2016-12-09 11:49:00,
2016-12-09 06:54:00,23.9,13.5,30.36,WSW,255,6.3,6.3,64,0.00,,,0.00,VWS V15.00,2016-12-09 11:54:00,